Погода в Жанауштогане

Погода в Жанауштогане : погода сейчас, прогноз погоды и архив. Всё, что Вы хотите узнать о погоде в Жанауштогане!

Хотите узнать прогноз погоды в Жанауштогане? Тогда Вам сюда: Погода в Жанауштогане

Поиск расширенной информации на нашем сайте:

Другие новости

Новости СМИ2

Главная страница сайта

Новости сайта

03.07.2017

Напоминаем, что на нашем специализированном сайте Метеоцентр.Азия вы можете получить высокодетализированные автоматические прогнозы погоды по пунктам России, СНГ и мира в авиационном формате (включающие направление и скорость ветра, видимость, явления погоды, количество и форму облачности, нижнюю и верхнюю границу облачности).

Рекомендуем: Подробное описание Крайслер замена катализатора на пламегаситель тут.

Погода в Жанауштогане - сегодня

Время (UTC), дата Ветер
(°,м/с) 
Видим.   Явления Облачность Т
(°С)
Тd
(°С)
f(%) Тe
(°С)
Pmin
(гПа)
dP
(гПа)
Po
(мм)
O2
(г/м3)
Тmin Tmax R s Состояние
почвы
18 15.10.17 тихо ()   20000 м    6/0 средняя 
[Ac trans]
+10.2 +6.4 77 +10  1006.7  -1.7  756  293    +19.4       
21 15.10.17 тихо ()   20000 м    6/0 средняя 
[Ac trans]
+8.2 +5.8 85 +8  1005.5  -1.2  755  294           
00 16.10.17 230 (ЮЗ) 4000 м  слаб. ливневой дождь  8/8 600 м кучево-дожд. 
[Cb calv]
+6.8 +5.5 91 +7  1002.4  -3.1  753  295           
03 16.10.17 180 (Ю) 4000 м  слаб. ливневой дождь  8/8 600 м кучево-дожд. 
[Cb calv]
+6.2 +5.8 97 +6  1000.6  -1.8  751  295         
06 16.10.17 250 (З) 20000 м  {ливн. осадки}  8/8 600 м кучево-дожд. 
[Cb calv]
+8.8 +6.2 84 +8  998.1  -2.5  749  292  +0.6       
09 16.10.17 250 (З) 20000 м    8/8 600 м кучево-дожд. 
[Cb calv]
+9.9 +5.8 76 +9  998.6  0.5  750  291           
12 16.10.17 340 (С) 20000 м    8/8 600 м кучево-дожд. 
[Cb calv]
+9 +6.2 83 +7  1000.4  1.8  751  292           
15 16.10.17 320 (СЗ) 20000 м  в посл. час ливневой дождь  8/8 600 м кучево-дожд. 
[Cb calv]
+7 +5.1 88 +5  1004.3  3.9  754  295    +11.2     
18 16.10.17 320 (СЗ) 4000 м  слаб. ливневой дождь  8/8 600 м кучево-дожд. 
[Cb calv]
+5.2 +4.5 95 +4  1005  0.7  755  298    +11.2     
21 16.10.17 320 (СЗ) 20000 м  {ливн. осадки}  8/8 600 м кучево-дожд. 
[Cb calv]
+5 +4.8 99 +4  1005.2  0.2  755  298           
00 17.10.17 320 (СЗ) 20000 м    8/8 600 м кучево-дожд. 
[Cb calv]
+3.4 +2.7 95 +1  1006.1  0.9  755  300           
03 17.10.17 320 (СЗ) 4000 м  слаб. ливневой дождь  9/9 600 м кучево-дожд. 
[Cb calv]
+6.2 +5.8 97 +5  1006.3  0.2  756  297         
06 17.10.17 290 (З) 20000 м  {ливн. осадки}  8/4 600 м кучево-дожд., средняя 
[Cb calv|Ac trans]
+7.8 +6.1 89 +7  1007.4  1.1  756  295  +3.3       
09 17.10.17 320 (СЗ) 4000 м  слаб. ливневой дождь  9/9 600 м кучево-дожд. 
[Cb calv]
+9.2 +8.4 95 +8  1008.5  1.1  757  294           
12 17.10.17 320 (СЗ) 20000 м  {ливн. осадки}  9/9 600 м кучево-дожд. 
[Cb calv]
+9.4 +8.4 93 +9  1009.1  0.6  758  294           
15 17.10.17 340 (С) 20000 м    8/4 600 м кучево-дожд., средняя 
[Cb calv|Ac trans]
+9.6 +8 90 +9  1010.4  1.3  759  294    +10.2     
18 17.10.17 340 (С) 20000 м    8/4 600 м кучево-дожд., средняя 
[Cb calv|Ac trans]
+8.6 +6.2 85 +7  1013  2.6  761  296    +10.2     
21 17.10.17 340 (С) 20000 м    6/0 средняя 
[Ac trans]
+6.6 +4.3 85 +5  1013  761  299           
00 18.10.17 320 (СЗ) 20000 м    6/0 средняя 
[Ac trans]
+6.4 +3.8 83 +5  1014.7  1.7  762  299           
03 18.10.17 320 (СЗ) 20000 м    3/0 средняя 
[Ac trans]
+4.8 +1.8 81 +4  1017  2.3  764  302           
06 18.10.17 320 (СЗ) 20000 м    8/0 средняя 
[Ac trans]
+7 +4.3 83 +7  1018.9  1.9  765  300  +4.7         
09 18.10.17 320 (СЗ) 20000 м    6/0 средняя 
[Ac trans]
+9.8 +4.5 70 +9  1020.8  1.9  767  297           
12 18.10.17 320 (СЗ) 20000 м    3/0 средняя 
[Ac trans]
+11.9 +4.5 60 +11  1020.5  -0.3  766  295           
15 18.10.17 290 (З) 20000 м    ясно 
+9.2 +4.5 72 +9  1020.9  0.4  767  298    +12.5       
18 18.10.17 270 (З) 20000 м    ясно 
+7.2 +4.5 83 +7  1020.8  -0.1  767  300    +12.5       
Время (UTC), дата Ветер
(°,м/с) 
Видим.   Явления Облачность Т
(°С)
Тd
(°С)
f(%) Тe
(°С)
Pmin
(гПа)
dP
(гПа)
Po
(мм)
O2
(г/м3)
Тmin Tmax R s Состояние
почвы

Для получения пояснительной информации подведите курсор к названию столбца.

ПОГОДА в Жанауштогане - архив

Всё, что Вы хотите узнать о погоде в Жанауштогане - удобно и подробно!

Выберите нужную дату (начиная с 1 января 2015* года) и нажмите кнопку "Найти".
Будут отображены архивные сводки погоды по пункту Жанауштоган, начиная с указанной даты.


Отображать данные в формате CSV (для использования в таблицах Excel)


Внимание! Наш архив погоды предназначен исключительно для личного некоммерческого использования в познавательных целях. Если Вам необходимы официальные справки о состоянии погоды (для производственных, юридических, коммерческих и т.п. целей), обращайтесь в органы Росгидромета.

*Примечание: данная дата относится к архиву по метеостанциям СССР (Россия, СНГ, Балтия).
Архив по метеостанциям Зарубежной Европы и Азии (кроме Китая) хранится 10 дней, по другим регионам земного шара (Китай, Африка, Америка, Австралия, Океания) - 1 день.

Жанауштоган - район местоположения метеостанции


Название, широта, долгота, высота метеостанции:
Жанауштоган 47.9°ш. 48.8°д. -10 м над ур. моря [Казахстан]

Дополнительная информация

В oтличие oт бoльшинства пoгoдных сайтoв мы публикуем пoдрoбную метеoинфoрмацию в детальнoм прoфессиoнальнoм фoрмате.

Характеристики температуры и влажнoсти вoздуха измеряются на высoте 2 м в тени вдали oт зданий и деревьев.
Скoрoсть ветра измеряется на высoте 10 м (на урoвне рoста челoвека скoрoсть ветра ниже в 1.5-2 раза). Если метеoстанция нахoдится в гoрoде или в лесу, тo скoрoсть ветра занижена на 2-4 м/с пo сравнению с oткрытым местoм. Скoрoсть ветра над акватoриями крупных рек и oзёр, а также на вершинах хoлмoв на 2-5 м/с выше, чем в oбычных услoвиях.
Атмoсфернoе давление в разных тoчках местнoсти мoжет значительнo oтличаться oт давления на метеoстанции, в зависимoсти oт услoвий рельефа (при пoдъёме на 10 м давление пoнижается примернo на 1 мм рт.ст.).